Location: Newark
(44.4167°N, 12.2000°E)
Time: 20:13:18
(UTC+00:00)

Envisat - Visible Passes

Search period start: 23 September 2020 00:00
Search period end: 03 October 2020 00:00
Orbit: 764 x 766 km, 98.1° (Epoch: 23 September)

Date Brightness Start Highest point End Pass type
(mag) Time Alt. Az. Time Alt. Az. Time Alt. Az.
23 Sep 6.1 17:41:59 10° SW 17:45:20 17° W 17:48:41 10° NW visible
24 Sep 6.0 04:09:06 10° NE 04:12:37 19° E 04:16:07 10° SE visible
26 Sep 6.0 17:29:58 10° SW 17:33:51 22° W 17:37:46 10° NW visible
27 Sep 6.2 03:58:19 10° NE 04:01:08 15° E 04:03:54 10° ESE visible
28 Sep 6.5 17:57:26 10° WSW 17:59:36 13° W 18:01:45 10° WNW visible
29 Sep 5.7 04:22:39 10° NE 04:26:50 25° E 04:30:59 10° SSE visible
29 Sep 5.6 17:18:06 10° SSW 17:22:24 27° W 17:26:42 10° NW visible
30 Sep 6.5 03:48:00 10° ENE 03:49:37 11° E 03:51:13 10° ESE visible
01 Oct 6.2 17:45:01 10° SW 17:48:05 16° W 17:51:11 10° NW visible
02 Oct 6.0 04:11:39 10° NE 04:15:23 20° E 04:19:04 10° SE visible
